Tracking 28790 objects as of 19-Apr-2024
HD Live streaming from Space Station
objects crossing your sky now

COSMOS 1275 DEB

Track COSMOS 1275 DEB now!
10-day predictions


NORAD ID: 42201
Int'l Code: 1981-053TR
Perigee: 785.7 km
Apogee: 843.3 km
Inclination: 82.7 °
Period: 101.0 minutes
Semi major axis: 7185 km
RCS: Unknown
Launch date: June 4, 1981
Source: Commonwealth of Independent States (former USSR) (CIS)
Launch site: PLESETSK MISSILE AND SPACE COMPLEX (PKMTR)

Note: This is SATELLITE DEBRIS
Your satellite tracking list
Your tracking list is empty




NASA's NSSDC Master Catalog

Two Line Element Set (TLE):
1 42201U 81053TR  24109.26731239  .00013871  00000-0  58260-2 0  9998
2 42201  82.6938 105.0991 0040109 185.0850 174.9932 14.25342753538011
Source of the keplerian elements: AFSPC